Location: Oberkirch
(48.5323°N, 8.0787°E)
Time: 10:50:19
(UTC+00:00)

Vanguard 2 - Visible Passes

Search period start: 16 February 2026 00:00
Search period end: 26 February 2026 00:00
Orbit: 553 x 2897 km, 32.9° (Epoch: 15 February)

Date Brightness Start Highest point End Pass type
(mag) Time Alt. Az. Time Alt. Az. Time Alt. Az.
20 Feb 10.0 04:53:58 10° SSW 04:55:38 11° S 04:57:10 10° SSE visible
21 Feb 9.8 05:04:44 10° SSW 05:07:22 13° S 05:09:39 10° SSE visible
22 Feb 10.3 03:12:34 12° SSE 03:12:34 12° SSE 03:14:04 10° SSE visible
22 Feb 9.7 05:15:59 10° SW 05:19:05 14° S 05:21:43 10° SSE visible
23 Feb 10.1 03:23:46 15° S 03:23:46 15° S 03:26:57 10° SE visible
23 Feb 9.7 05:27:27 10° SW 05:30:47 15° S 05:33:34 10° SSE visible
24 Feb 9.9 03:34:56 17° S 03:35:21 17° S 03:39:16 10° SE visible
24 Feb 9.6 05:39:06 10° SW 05:42:28 15° SSW 05:45:15 10° SSE visible
25 Feb 9.8 03:46:04 19° S 03:47:05 20° S 03:51:22 10° SE visible
